Hutchinson, MN

1:00 AM CDT on July 23, 2017 (GMT -0500)
Hutchinson Municipal-Butler

Weather History for KHCD - December, 2014

Change the Weather History Date:

Thursday, December 11, 2014

  Actual Average Record
Temperature  
Mean Temperature 30 °F -  
Max Temperature 33 °F 28 °F 46 °F (1974)
Min Temperature 28 °F 9 °F -13 °F (1966)
Degree Days  
Heating Degree Days 34    
Moisture  
Dew Point 30 °F    
Average Humidity 98    
Maximum Humidity 100    
Minimum Humidity 96    
Precipitation  
Precipitation 0.00 in - - ()
Sea Level Pressure  
Sea Level Pressure 30.21 in    
Wind  
Wind Speed 6 mph (SSE)    
Max Wind Speed 8 mph    
Max Gust Speed -    
Visibility 3 miles    
Events      
Averages and records for this station are not official NWS values.
T = Trace of Precipitation, MM = Missing Value Source: NWS Daily Summary

Daily Weather History Graph

Daily Weather History Graph

Search for Another Location

Airport or City:

Trip Planner

Search our weather history database for the weather conditions in past years. The results will help you decide how hot, cold, wet, or windy it might be!

Date:

Astronomy

Dec. 11, 2014 Rise Set
Actual Time 7:45 AM CST 4:36 PM CST
Civil Twilight 7:11 AM CST 5:09 PM CST
Nautical Twilight 6:34 AM CST 5:46 PM CST
Astronomical Twilight 5:59 AM CST 6:22 PM CST
Moon 9:57 PM CST (12/11) 11:00 AM CST (12/11)
Length of Visible Light 9h 58m
Length of Day
8h 51m
Waning Gibbous, 75% of the Moon is Illuminated
Dec 11
Waning Gibbous
Dec 14
Last Quarter
Dec 21
New
Dec 28
First Quarter
Jan 4
Full

Hourly Weather History & Observations

Time (CST) Temp. Windchill Dew Point Humidity Pressure Visibility Wind Dir Wind Speed Gust Speed Precip Events Conditions
12:12 AM 29.1 °F 21.3 °F 28.0 °F 96% 30.24 in 5.0 mi South 8.1 mph - N/A   Overcast
12:32 AM 28.9 °F 21.9 °F 27.9 °F 96% 30.24 in 5.0 mi South 6.9 mph - N/A   Overcast
12:53 AM 28.9 °F 22.8 °F 28.0 °F 96% 30.24 in 4.0 mi South 5.8 mph - N/A   Overcast
1:12 AM 28.8 °F 23.7 °F 27.9 °F 96% 30.24 in 4.0 mi SSW 4.6 mph - N/A   Overcast
1:33 AM 28.8 °F 20.9 °F 28.0 °F 97% 30.24 in 4.0 mi South 8.1 mph - N/A   Overcast
1:49 AM 28.4 °F 22.2 °F 28.0 °F 99% 30.23 in 3.0 mi South 5.8 mph - N/A   Overcast
2:05 AM 28.4 °F 21.2 °F 28.4 °F 100% 30.24 in 3.0 mi SSW 6.9 mph - N/A   Overcast
2:25 AM 28.4 °F 21.2 °F 28.4 °F 100% 30.25 in 3.0 mi SSW 6.9 mph - N/A   Overcast
3:05 AM 28.4 °F 21.2 °F 28.4 °F 100% 30.24 in 3.0 mi SSW 6.9 mph - N/A   Overcast
3:13 AM 28.2 °F 22.0 °F 27.9 °F 99% 30.24 in 3.0 mi South 5.8 mph - N/A   Overcast
3:32 AM 28.2 °F 21.0 °F 27.9 °F 99% 30.24 in 3.0 mi South 6.9 mph - N/A   Overcast
3:52 AM 28.2 °F 22.0 °F 27.9 °F 99% 30.23 in 2.5 mi South 5.8 mph - N/A   Overcast
4:12 AM 28.2 °F 21.0 °F 27.9 °F 99% 30.23 in 2.5 mi South 6.9 mph - N/A   Overcast
4:32 AM 28.2 °F 23.1 °F 27.9 °F 99% 30.23 in 3.0 mi South 4.6 mph - N/A   Overcast
4:52 AM 28.2 °F 23.1 °F 28.0 °F 99% 30.23 in 3.0 mi South 4.6 mph - N/A   Overcast
5:13 AM 28.0 °F 24.2 °F 27.9 °F 99% 30.23 in 3.0 mi SSW 3.5 mph - N/A   Overcast
5:32 AM 28.0 °F 20.8 °F 27.9 °F 99% 30.23 in 2.0 mi South 6.9 mph - N/A   Overcast
5:52 AM 28.0 °F 21.7 °F 27.9 °F 99% 30.23 in 2.0 mi SSE 5.8 mph - N/A   Overcast
6:13 AM 28.0 °F 20.8 °F 27.9 °F 99% 30.22 in 1.8 mi SE 6.9 mph - N/A   Overcast
6:33 AM 28.2 °F 22.0 °F 28.2 °F 100% 30.23 in 1.5 mi SSE 5.8 mph - N/A   Overcast
6:52 AM 28.2 °F 23.1 °F 28.0 °F 99% 30.22 in 1.5 mi SSE 4.6 mph - N/A   Overcast
7:12 AM 28.4 °F 23.3 °F 28.2 °F 99% 30.23 in 1.8 mi SSE 4.6 mph - N/A   Overcast
7:32 AM 28.4 °F 23.3 °F 28.2 °F 99% 30.23 in 2.0 mi SSE 4.6 mph - N/A   Overcast
7:53 AM 28.4 °F 22.2 °F 28.2 °F 99% 30.23 in 1.8 mi SSE 5.8 mph - N/A   Overcast
8:12 AM 28.4 °F 22.2 °F 28.4 °F 100% 30.23 in 1.5 mi SSE 5.8 mph - N/A   Overcast
8:33 AM 28.4 °F 22.2 °F 28.4 °F 100% 30.24 in 1.2 mi SSE 5.8 mph - N/A   Overcast
8:53 AM 28.8 °F 22.6 °F 28.4 °F 99% 30.23 in 1.2 mi SSE 5.8 mph - N/A   Overcast
9:12 AM 29.1 °F 21.3 °F 28.9 °F 99% 30.23 in 1.5 mi SSE 8.1 mph - N/A   Overcast
9:33 AM 29.3 °F 21.5 °F 29.1 °F 99% 30.22 in 2.0 mi SSE 8.1 mph - N/A   Overcast
9:52 AM 29.5 °F 22.5 °F 29.3 °F 99% 30.22 in 2.5 mi SSE 6.9 mph - N/A   Overcast
10:13 AM 30.0 °F 25.2 °F 29.7 °F 99% 30.22 in 2.5 mi SSE 4.6 mph - N/A   Overcast
10:32 AM 30.2 °F 25.4 °F 29.7 °F 98% 30.23 in 2.5 mi SSE 4.6 mph - N/A   Overcast
10:53 AM 30.2 °F 23.4 °F 29.7 °F 98% 30.21 in 2.5 mi SSE 6.9 mph - N/A   Overcast
11:12 AM 30.7 °F 24.9 °F 30.0 °F 97% 30.21 in 2.5 mi SSE 5.8 mph - N/A   Overcast
11:32 AM 30.7 °F 23.3 °F 30.2 °F 98% 30.20 in 2.0 mi South 8.1 mph - N/A   Overcast
11:52 AM 30.7 °F 24.1 °F 30.2 °F 98% 30.20 in 2.0 mi SSE 6.9 mph - N/A   Overcast
12:12 PM 31.1 °F 24.5 °F 30.6 °F 98% 30.19 in 2.5 mi South 6.9 mph - N/A   Overcast
12:32 PM 31.3 °F 25.6 °F 30.6 °F 97% 30.19 in 3.0 mi SSE 5.8 mph - N/A   Overcast
12:53 PM 31.8 °F 26.2 °F 30.9 °F 96% 30.19 in 3.0 mi SSE 5.8 mph - N/A   Overcast
1:13 PM 31.8 °F 27.3 °F 30.9 °F 96% 30.19 in 3.0 mi SSE 4.6 mph - N/A   Overcast
1:32 PM 32.0 °F 27.5 °F 31.1 °F 96% 30.18 in 3.0 mi SSE 4.6 mph - N/A   Overcast
1:52 PM 32.0 °F 28.7 °F 31.1 °F 96% 30.18 in 3.0 mi SSE 3.5 mph - N/A   Overcast
2:12 PM 32.2 °F 25.8 °F 31.5 °F 97% 30.18 in 4.0 mi SSE 6.9 mph - N/A   Overcast
2:33 PM 32.2 °F 25.8 °F 31.5 °F 97% 30.17 in 4.0 mi South 6.9 mph - N/A   Overcast
2:52 PM 32.2 °F 27.7 °F 31.5 °F 97% 30.17 in 5.0 mi SSE 4.6 mph - N/A   Overcast
3:12 PM 32.4 °F 26.0 °F 31.6 °F 97% 30.17 in 5.0 mi South 6.9 mph - N/A   Overcast
3:33 PM 32.5 °F 27.1 °F 31.8 °F 97% 30.17 in 5.0 mi SSE 5.8 mph - N/A   Overcast
3:52 PM 32.4 °F 26.0 °F 31.6 °F 97% 30.18 in 5.0 mi SSE 6.9 mph - N/A   Overcast
4:13 PM 32.2 °F 27.7 °F 31.6 °F 98% 30.18 in 4.0 mi SSE 4.6 mph - N/A   Overcast
4:32 PM 32.0 °F 27.5 °F 31.8 °F 99% 30.18 in 2.5 mi SSE 4.6 mph - N/A   Overcast
4:52 PM 32.0 °F 27.5 °F 32.0 °F 100% 30.19 in 3.0 mi SE 4.6 mph - N/A   Overcast
5:13 PM 32.0 °F 25.6 °F 32.0 °F 100% 30.19 in 3.0 mi SE 6.9 mph - N/A   Overcast
5:32 PM 32.0 °F 28.7 °F 32.0 °F 100% 30.19 in 2.5 mi SSE 3.5 mph - N/A   Overcast
5:53 PM 32.0 °F 28.7 °F 32.0 °F 100% 30.20 in 2.5 mi SSE 3.5 mph - N/A   Overcast
6:12 PM 32.0 °F 27.5 °F 32.0 °F 100% 30.20 in 2.5 mi SE 4.6 mph - N/A   Overcast
6:32 PM 32.0 °F 28.7 °F 32.0 °F 100% 30.19 in 2.5 mi SSE 3.5 mph - N/A   Overcast
6:52 PM 32.0 °F 28.7 °F 32.0 °F 100% 30.19 in 2.0 mi SSE 3.5 mph - N/A   Overcast
7:13 PM 32.2 °F 28.9 °F 32.0 °F 99% 30.19 in 2.0 mi South 3.5 mph - N/A   Overcast
7:33 PM 32.2 °F 27.7 °F 32.0 °F 99% 30.19 in 2.0 mi SSE 4.6 mph - N/A   Overcast
7:53 PM 32.4 °F 29.1 °F 32.2 °F 99% 30.19 in 2.0 mi SSE 3.5 mph - N/A   Overcast
8:12 PM 32.5 °F 29.3 °F 32.4 °F 99% 30.19 in 2.5 mi SSE 3.5 mph - N/A   Overcast
8:32 PM 32.9 °F 28.5 °F 32.5 °F 99% 30.18 in 2.5 mi SSE 4.6 mph - N/A   Overcast
8:52 PM 32.9 °F 27.5 °F 32.5 °F 99% 30.18 in 2.5 mi South 5.8 mph - N/A   Overcast
9:13 PM 32.9 °F 27.5 °F 32.9 °F 100% 30.18 in 2.5 mi South 5.8 mph - N/A   Overcast
9:32 PM 32.9 °F 26.7 °F 32.9 °F 100% 30.17 in 2.5 mi South 6.9 mph - N/A   Overcast
9:52 PM 33.1 °F 26.1 °F 32.9 °F 99% 30.16 in 3.0 mi South 8.1 mph - N/A   Overcast
10:13 PM 33.3 °F 27.9 °F 32.9 °F 99% 30.16 in 3.0 mi South 5.8 mph - N/A   Overcast
10:32 PM 33.3 °F 27.9 °F 32.9 °F 99% 30.17 in 3.0 mi South 5.8 mph - N/A   Overcast
10:52 PM 33.4 °F 28.1 °F 32.9 °F 98% 30.17 in 3.0 mi South 5.8 mph - N/A   Overcast
11:13 PM 33.4 °F 27.3 °F 32.9 °F 98% 30.17 in 3.0 mi South 6.9 mph - N/A   Overcast
11:32 PM 33.8 °F 29.6 °F 32.9 °F 96% 30.18 in 3.0 mi South 4.6 mph - N/A   Overcast
11:53 PM 33.8 °F 29.6 °F 32.9 °F 96% 30.18 in 3.0 mi South 4.6 mph - N/A   Overcast